This demonstration page uses our WeatherBlox Daily Observations layout. Learn more.

Left ArrowRight Arrow

36.17497, -115.13722

Hourly Observations for April 28, 2020

Temp ( °F °C ) Dew Point ( °F °C ) Humidity (%) Winds ( mph kmh ) Pressure ( in mb ) Visibility ( mi km ) Precip ( " mm )
12:53 am 00:53 Clear 80 26.7 30 -1.1 16 16 WNW 7 11 29.90 1013 10 16 N/A
1:53 am 01:53 Clear 79 26.1 30 -1.1 17 17 N 5 7 29.91 1013 10 16 N/A
2:53 am 02:53 Clear 76 24.4 32 undefined 20 20 NW 8 13 29.91 1013 10 16 N/A
3:53 am 03:53 Clear 79 26.1 29 -1.7 16 16 NNW 13 20 29.91 1013 10 16 N/A
4:53 am 04:53 Clear 75 23.9 30 -1.1 19 19 NW 5 7 29.95 1014 10 16 N/A
5:53 am 05:53 Sunny 75 23.9 30 -1.1 19 19 NW 9 15 29.95 1014 10 16 N/A
6:53 am 06:53 Sunny 77 25 31 -0.6 18 18 N N/A 29.98 1015 10 16 N/A
7:53 am 07:53 Sunny 79 26.1 33 0.6 19 19 NNW 10 17 30.01 1016 10 16 N/A
8:53 am 08:53 Sunny 84 28.9 33 0.6 16 16 NNW 12 19 30.02 1017 10 16 N/A
9:53 am 09:53 Sunny 88 31.1 34 1.1 15 15 N 7 11 30.03 1017 10 16 N/A
10:53 am 10:53 Sunny 89 31.7 32 undefined 13 13 ESE 7 11 30.04 1017 10 16 N/A
11:53 am 11:53 Sunny 92 33.3 32 undefined 12 12 N N/A 30.02 1017 10 16 N/A
12:53 pm 12:53 Sunny 94 34.4 32 undefined 11 11 SE 6 9 30.00 1016 10 16 N/A
1:53 pm 13:53 Sunny 95 35 32 undefined 11 11 VRB 5 7 29.98 1015 10 16 N/A
2:53 pm 14:53 Sunny 95 35 33 0.6 11 11 E 7 11 29.96 1015 10 16 N/A
3:53 pm 15:53 Sunny 96 35.6 33 0.6 11 11 E 9 15 29.93 1014 10 16 N/A
4:53 pm 16:53 Sunny 95 35 33 0.6 11 11 ESE 5 7 29.93 1013 10 16 N/A
5:53 pm 17:53 Sunny 95 35 33 0.6 11 11 E 5 7 29.92 1013 10 16 N/A
6:53 pm 18:53 Sunny 94 34.4 33 0.6 12 12 E 7 11 29.92 1013 10 16 N/A
7:53 pm 19:53 Clear 90 32.2 33 0.6 13 13 ENE 6 9 29.93 1014 10 16 N/A
8:53 pm 20:53 Clear 90 32.2 36 2.2 15 15 N N/A 29.95 1014 10 16 N/A
9:53 pm 21:53 Clear 85 29.4 38 3.3 19 19 WNW 6 9 29.97 1015 10 16 N/A
10:53 pm 22:53 Clear 82 27.8 38 3.3 21 21 WNW 5 7 29.97 1015 10 16 N/A
11:53 pm 23:53 Clear 80 26.7 40 4.4 24 24 WNW 8 13 29.98 1015 10 16 N/A

Powered by AerisWeather